CW8429 Weather Reports


Display with metric or nautical units.
time (UTC)temp
F
wind
direction
speed
MPH
gust
MPH
rain 1hr
in
rain 24hr
in
rain mn
in
humidity
%
barometer
mb
20260509161625 59 300 2.0 5.0 0.00 0.00 0.00 34 1017.5
20260509160614 59 322 4.0 7.0 0.00 0.00 0.00 36 1017.5
20260509155615 59 295 0.0 5.0 0.00 0.00 0.00 32 1017.5
20260509154627 58 311 1.0 6.0 0.00 0.00 0.00 33 1017.6
20260509153616 57 309 3.0 7.0 0.00 0.00 0.00 34 1017.5
20260509152624 56 327 3.0 8.0 0.00 0.00 0.00 35 1017.5
20260509151616 56 344 4.0 9.0 0.00 0.00 0.00 37 1017.6
20260509150624 56 310 7.0 10.0 0.00 0.00 0.00 38 1017.5
20260509145624 56 300 6.0 10.0 0.00 0.00 0.00 37 1017.5
20260509144631 57 288 6.0 10.0 0.00 0.00 0.00 34 1017.5
20260509143624 56 277 7.0 11.0 0.00 0.00 0.00 36 1017.4
20260509142631 55 285 6.0 8.0 0.00 0.00 0.00 39 1017.4
20260509141640 52 288 3.0 5.0 0.00 0.00 0.00 47 1017.4
20260509140627 50 282 3.0 6.0 0.00 0.00 0.00 48 1017.3
20260509135626 47 269 0.0 2.0 0.00 0.00 0.00 49 1017.5
20260509134638 47 269 1.0 3.0 0.00 0.00 0.00 50 1017.4
20260509133626 47 267 2.0 4.0 0.00 0.00 0.00 48 1017.5
20260509132616 49 228 2.0 4.0 0.00 0.00 0.00 47 1017.3
20260509131646 47 229 1.0 4.0 0.00 0.00 0.00 38 1017.2
20260509130621 47 229 0.0 4.0 0.00 0.00 0.00 42 1017.1
20260509125623 46 279 0.0 0.0 0.00 0.00 0.00 46 1017.0
20260509124631 45 279 0.0 0.0 0.00 0.00 0.00 46 1016.9
20260509123620 47 279 0.0 3.0 0.00 0.00 0.00 42 1016.8
20260509122651 48 280 3.0 9.0 0.00 0.00 0.00 38 1016.7
20260509121620 47 300 0.0 5.0 0.00 0.00 0.00 40 1016.3
20260509120629 47 168 0.0 5.0 0.00 0.00 0.00 40 1016.4
20260509115627 45 126 2.0 9.0 0.00 0.00 0.00 42 1016.3
20260509114618 45 122 8.0 9.0 0.00 0.00 0.00 42 1016.3
20260509113627 46 119 6.0 10.0 0.00 0.00 0.00 40 1016.1
20260509112617 46 129 4.0 9.0 0.00 0.00 0.00 39 1016.0
20260509111628 46 142 7.0 11.0 0.00 0.00 0.00 40 1015.8
20260509110623 46 138 7.0 10.0 0.00 0.00 0.00 41 1015.5
20260509105626 45 121 8.0 10.0 0.00 0.00 0.00 42 1015.6
20260509104616 46 126 5.0 8.0 0.00 0.00 0.00 41 1015.7
20260509103625 48 113 5.0 8.0 0.00 0.00 0.00 38 1015.6
20260509102618 50 129 4.0 7.0 0.00 0.00 0.00 34 1015.7
20260509101629 50 94 3.0 7.0 0.00 0.00 0.00 33 1015.6
20260509100621 51 114 6.0 8.0 0.00 0.00 0.00 34 1015.5
20260509095624 51 148 1.0 5.0 0.00 0.00 0.00 33 1015.2
20260509094620 52 306 3.0 12.0 0.00 0.00 0.00 33 1015.2
20260509093651 53 297 4.0 13.0 0.00 0.00 0.00 32 1015.0
20260509092621 54 263 5.0 11.0 0.00 0.00 0.00 28 1014.9
20260509091629 54 277 7.0 15.0 0.00 0.00 0.00 27 1014.9
20260509090622 55 271 3.0 9.0 0.00 0.00 0.00 32 1015.0
20260509085626 55 218 3.0 10.0 0.00 0.00 0.00 26 1015.1
20260509084634 56 268 4.0 11.0 0.00 0.00 0.00 31 1015.1
20260509083623 55 139 2.0 4.0 0.00 0.00 0.00 32 1014.8
20260509082619 56 112 2.0 9.0 0.00 0.00 0.00 29 1014.7
20260509081629 54 182 4.0 8.0 0.00 0.00 0.00 30 1014.9
20260509080621 50 183 0.0 8.0 0.00 0.00 0.00 37 1015.1
20260509075623 50 299 3.0 7.0 0.00 0.00 0.00 41 1015.1
20260509074617 50 184 3.0 8.0 0.00 0.00 0.00 39 1015.2
20260509073629 51 301 2.0 8.0 0.00 0.00 0.00 40 1015.1
20260509072639 50 138 6.0 10.0 0.00 0.00 0.00 35 1015.0
20260509071614 49 180 3.0 7.0 0.00 0.00 0.00 38 1015.3
20260509070625 48 130 7.0 8.0 0.00 0.00 0.00 42 1015.1
20260509065625 49 281 2.0 5.0 0.00 0.00 0.00 45 1015.1
20260509064614 50 115 4.0 8.0 0.00 0.00 0.00 41 1015.1
20260509063641 50 120 4.0 7.0 0.00 0.00 0.00 41 1014.9
20260509062651 51 128 4.0 5.0 0.00 0.00 0.00 39 1015.1
20260509061619 51 161 4.0 8.0 0.00 0.00 0.00 39 1015.1
20260509060640 51 299 0.0 2.0 0.00 0.00 0.00 42 1015.2
20260509055620 51 299 0.0 8.0 0.00 0.00 0.00 39 1015.1
20260509054626 54 161 4.0 7.0 0.00 0.00 0.00 33 1015.1
20260509053615 53 128 2.0 8.0 0.00 0.00 0.00 35 1015.2
20260509052623 54 142 1.0 4.0 0.00 0.00 0.00 35 1015.2
20260509051631 55 136 3.0 7.0 0.00 0.00 0.00 33 1015.1
20260509050619 56 204 3.0 4.0 0.00 0.00 0.00 33 1014.9
20260509045626 56 208 1.0 5.0 0.00 0.00 0.00 32 1014.8
20260509044615 56 220 1.0 5.0 0.00 0.00 0.00 32 1014.8
20260509043643 56 290 0.0 0.0 0.00 0.00 0.00 35 1014.8
20260509042631 55 290 0.0 2.0 0.00 0.00 0.00 35 1015.0
20260509041626 55 290 1.0 4.0 0.00 0.00 0.00 36 1015.0
20260509040616 56 313 0.0 3.0 0.00 0.00 0.00 36 1014.9
20260509035614 55 315 3.0 5.0 0.00 0.00 0.00 36 1014.8
20260509034621 56 298 2.0 3.0 0.00 0.00 0.00 38 1014.7
20260509033630 56 317 2.0 4.0 0.00 0.00 0.00 38 1014.6
20260509032637 57 294 0.0 4.0 0.00 0.00 0.00 36 1014.5
20260509031621 58 292 1.0 7.0 0.00 0.00 0.00 36 1014.3
20260509030647 59 281 1.0 5.0 0.00 0.00 0.00 33 1014.2
20260509025617 61 191 2.0 5.0 0.00 0.00 0.00 32 1014.0
20260509024625 62 197 0.0 3.0 0.00 0.00 0.00 30 1013.8
20260509023629 63 162 2.0 7.0 0.00 0.00 0.00 27 1013.7
20260509022615 64 170 3.0 8.0 0.00 0.00 0.00 28 1013.6
20260509021620 65 119 4.0 7.0 0.00 0.00 0.00 29 1013.6
20260509020614 65 198 1.0 9.0 0.00 0.00 0.00 28 1013.6
20260509015627 66 267 3.0 9.0 0.00 0.00 0.00 28 1013.5
20260509014614 67 288 3.0 5.0 0.00 0.00 0.00 27 1013.4
20260509013618 67 311 4.0 9.0 0.00 0.00 0.00 25 1013.3
20260509012628 68 291 8.0 14.0 0.00 0.00 0.00 24 1013.3
20260509011616 69 257 1.0 10.0 0.00 0.00 0.00 28 1013.3
20260509010645 69 289 3.0 9.0 0.00 0.00 0.00 30 1013.4
20260509005618 69 288 5.0 14.0 0.00 0.00 0.00 28 1013.4
20260509004632 69 295 5.0 11.0 0.00 0.00 0.00 26 1013.4
20260509003622 69 290 4.0 13.0 0.00 0.00 0.00 28 1013.4
20260509002626 69 182 8.0 18.0 0.00 0.00 0.00 26 1013.4
20260509001622 70 303 9.0 16.0 0.00 0.00 0.00 29 1013.4
20260509000613 70 283 5.0 12.0 0.00 0.00 0.00 31 1013.3
20260508235613 67 318 5.0 10.0 0.00 0.00 0.00 31 1013.4
20260508234644 66 283 3.0 5.0 0.00 0.00 0.00 37 1013.5
20260508233613 66 280 3.0 8.0 0.00 0.00 0.00 36 1013.4
20260508232623 66 281 6.0 9.0 0.00 0.00 0.00 36 1013.4
20260508231613 66 295 7.0 10.0 0.00 0.00 0.00 35 1013.5
20260508230619 66 284 5.0 9.0 0.00 0.00 0.00 32 1013.7
20260508225620 65 261 5.0 13.0 0.00 0.00 0.00 34 1013.8
20260508224648 65 292 2.0 11.0 0.00 0.00 0.00 35 1013.8
20260508223622 66 295 7.0 13.0 0.00 0.00 0.00 34 1013.9
20260508222650 66 176 5.0 10.0 0.00 0.00 0.00 29 1014.1
20260508221619 67 291 3.0 8.0 0.00 0.00 0.00 31 1014.3
20260508220630 67 157 2.0 9.0 0.00 0.00 0.00 31 1014.4
20260508215647 68 286 5.0 10.0 0.00 0.00 0.00 30 1014.5
20260508214618 69 161 4.0 11.0 0.00 0.00 0.00 29 1014.6
20260508213626 70 302 7.0 18.0 0.00 0.00 0.00 29 1014.8
20260508212614 70 301 6.0 15.0 0.00 0.00 0.00 29 1014.8
20260508211625 70 287 5.0 15.0 0.00 0.00 0.00 28 1014.8
20260508210613 69 271 7.0 15.0 0.00 0.00 0.00 29 1014.8
20260508205631 70 249 7.0 14.0 0.00 0.00 0.00 28 1014.7
20260508204621 69 286 7.0 11.0 0.00 0.00 0.00 28 1014.8
20260508203649 69 281 5.0 16.0 0.00 0.00 0.00 31 1014.9
20260508202620 68 287 6.0 16.0 0.00 0.00 0.00 31 1014.9
20260508201646 68 316 7.0 12.0 0.00 0.00 0.00 30 1015.0
20260508200614 68 282 8.0 14.0 0.00 0.00 0.00 29 1015.0
20260508195632 69 298 6.0 15.0 0.00 0.00 0.00 32 1015.1
20260508194624 68 281 7.0 17.0 0.00 0.00 0.00 29 1015.1
20260508193612 67 278 5.0 12.0 0.00 0.00 0.00 29 1015.1
20260508192621 67 259 5.0 12.0 0.00 0.00 0.00 28 1015.2
20260508191614 68 131 4.0 15.0 0.00 0.00 0.00 27 1015.2
20260508190621 68 302 8.0 13.0 0.00 0.00 0.00 30 1015.3
20260508185623 67 273 6.0 14.0 0.00 0.00 0.00 29 1015.3
20260508184632 66 70 4.0 12.0 0.00 0.00 0.00 27 1015.5
20260508183626 67 286 6.0 13.0 0.00 0.00 0.00 25 1015.6
20260508182612 67 288 9.0 13.0 0.00 0.00 0.00 28 1015.6
20260508181622 67 180 5.0 15.0 0.00 0.00 0.00 28 1015.7
20260508180623 66 313 7.0 16.0 0.00 0.00 0.00 26 1015.7
20260508175623 65 253 5.0 12.0 0.00 0.00 0.00 25 1015.8
20260508174614 65 34 4.0 11.0 0.00 0.00 0.00 29 1015.7
20260508173639 64 167 6.0 13.0 0.00 0.00 0.00 26 1015.5
20260508172626 64 142 3.0 8.0 0.00 0.00 0.00 32 1015.6
20260508171629 63 294 4.0 11.0 0.00 0.00 0.00 51 1015.5
20260508170632 62 282 2.0 5.0 0.00 0.00 0.00 44 1015.5
20260508165632 61 300 2.0 5.0 0.00 0.00 0.00 49 1015.6
20260508164621 60 305 3.0 8.0 0.00 0.00 0.00 56 1015.6
20260508163627 59 308 4.0 6.0 0.00 0.00 0.00 55 1015.6
20260508162631 59 296 0.0 4.0 0.00 0.00 0.00 56 1015.7